Content
SEND FEEDBACK

Daily
Averages
Monthly
Summary
United States of America

CIRCLEVILLE, OHIO


Home > North America > United States > Ohio
Elevation: 694 feet     Latitude: 39 37N     Longitude: 082 56W

WEATHER
 
SELECT A DAY
Number of Records: 447,471;   Date Range: 7/1/96 - 8/12/14
 
SHARE

PRINT THIS DATA

[ ← Previous Day ]
WEATHER ALMANAC - JANUARY 31, 2013
[ Next Day → ]
[ °C ]   °F
Weather ElementAverageHighLow
Temperature29 °F35.8 °F (12:35 am)22.3 °F (11:55 pm)
Dewpoint18.7 °F27 °F (12:35 am)10.9 °F (12:15 pm)
Humidity66 %83 % (7:35 pm)49 % (3:35 pm)
Barometer29.79 in29.93 in (11:55 pm)29.49 in (12:35 am)
Wind Speed20 mph28.8 mph (7:55 am)
Wind Gust42.6 mph (10:55 am)
Weather ElementAverage
Visibility8.2 mi
Wind DirectionW (264.6 °)

Weather ElementTotal
Precipitation---
Heating Degree Days36 (Base 65)
Averaged from 69 records on January 31, 2013
WEATHER CONDITIONS BREAKOUT
WIND DIRECTION BREAKOUT
WEATHER BY HOUR - JANUARY 31, 2013
[ °C ]   °F
Local TimeTemperatureDewpointHumidityBarometerVisibilityWind DirectionWind SpeedGust SpeedPrecipitationEventsConditions
12:35 AM35.8 °F27.0 °F70 %29.49 in10.0 miWest (260°)21.9 mph27.6 mphOvercast
12:55 AM35.6 °F26.6 °F70 %29.50 in10.0 miWest (260°)21.9 mph31.1 mphOvercast
1:15 AM35.6 °F26.6 °F70 %29.52 in10.0 miWest (260°)21.9 mph32.2 mphOvercast
1:35 AM35.1 °F26.1 °F70 %29.54 in10.0 miWest (270°)23.0 mph39.1 mphOvercast
1:55 AM34.5 °F25.5 °F70 %29.56 in10.0 miWest (260°)25.3 mph36.8 mphOvercast
2:15 AM34.2 °F24.6 °F68 %29.57 in10.0 miWest (270°)19.6 mph28.8 mphOvercast
2:35 AM33.8 °F24.6 °F69 %29.58 in10.0 miWest (270°)26.5 mph36.8 mphOvercast
2:55 AM33.3 °F23.4 °F67 %29.60 in10.0 miWest (260°)23.0 mph31.1 mphOvercast
3:15 AM32.9 °F23.2 °F67 %29.60 in10.0 miWest (270°)27.6 mph36.8 mphOvercast
3:35 AM32.7 °F22.1 °F65 %29.62 in10.0 miWest (270°)25.3 mph35.7 mphOvercast
3:55 AM32.0 °F22.5 °F68 %29.63 in4.0 miWSW (250°)24.2 mph32.2 mphSnowLight Snow
4:15 AM31.6 °F23.0 °F70 %29.64 in7.0 miWest (260°)27.6 mph34.5 mphSnowLight Snow
4:35 AM31.3 °F21.9 °F68 %29.66 in10.0 miWest (270°)23.0 mph41.4 mphOvercast
4:55 AM30.7 °F20.3 °F65 %29.67 in10.0 miWest (260°)27.6 mph35.7 mphOvercast
5:15 AM30.4 °F19.9 °F65 %29.68 in10.0 miWest (260°)25.3 mph35.7 mphSnowLight Snow
5:35 AM30.0 °F20.3 °F67 %29.68 in10.0 miWSW (250°)27.6 mph35.7 mphOvercast
5:55 AM29.3 °F19.8 °F68 %29.69 in10.0 miWest (260°)26.5 mph35.7 mphOvercast
6:15 AM28.8 °F17.6 °F63 %29.71 in10.0 miWest (270°)20.7 mph39.1 mphOvercast
6:35 AM28.2 °F16.0 °F60 %29.72 in10.0 miWest (270°)19.6 mph33.4 mphOvercast
7:15 AM28.0 °F17.6 °F65 %29.74 in10.0 miWest (260°)24.2 mph40.3 mphOvercast
7:35 AM27.9 °F16.3 °F62 %29.76 in10.0 miWest (270°)21.9 mph38.0 mphOvercast
7:55 AM27.9 °F15.4 °F60 %29.77 in10.0 miWest (260°)28.8 mph34.5 mphOvercast
8:15 AM27.5 °F15.8 °F61 %29.78 in10.0 miWest (260°)20.7 mph32.2 mphOvercast
8:35 AM27.3 °F15.6 °F61 %29.78 in10.0 miWest (270°)26.5 mph33.4 mphOvercast
8:55 AM27.5 °F16.3 °F63 %29.79 in7.0 miWest (260°)24.2 mph31.1 mphOvercast
9:15 AM27.0 °F18.7 °F71 %29.81 in0.8 miWest (270°)21.9 mph28.8 mphSnowLight Snow
9:35 AM26.4 °F17.8 °F70 %29.81 in10.0 miWest (270°)20.7 mph28.8 mphOvercast
9:55 AM26.6 °F15.1 °F62 %29.82 in10.0 miWest (270°)21.9 mph27.6 mphOvercast
10:15 AM27.0 °F14.4 °F59 %29.83 in10.0 miWest (260°)17.3 mph27.6 mphOvercast
10:35 AM26.1 °F17.4 °F70 %29.85 in0.5 miWest (260°)17.3 mph21.9 mphSnowLight Snow
10:55 AM25.7 °F19.6 °F78 %29.87 in0.5 miWest (270°)19.6 mph42.6 mphSnowLight Snow
11:15 AM25.7 °F16.0 °F67 %29.87 in7.0 miWest (260°)27.6 mph36.8 mphSnowLight Snow
11:35 AM26.4 °F12.4 °F55 %29.88 in10.0 miWest (260°)19.6 mph34.5 mphOvercast
11:55 AM26.8 °F11.5 °F53 %29.88 in10.0 miWest (270°)24.2 mph35.7 mphOvercast
12:15 PM27.3 °F10.9 °F50 %29.87 in10.0 miWest (270°)21.9 mph31.1 mphOvercast
12:35 PM27.7 °F13.3 °F55 %29.87 in7.0 miWest (260°)21.9 mph26.5 mphOvercast
12:55 PM28.6 °F15.1 °F57 %29.86 in10.0 miWSW (240°)21.9 mph25.3 mphOvercast
1:15 PM28.4 °F17.6 °F64 %29.86 in2.5 miWSW (240°)15.0 mph27.6 mphSnowLight Snow
1:35 PM28.8 °F17.6 °F63 %29.85 in10.0 miWSW (250°)23.0 mph29.9 mphOvercast
1:55 PM30.0 °F16.3 °F57 %29.85 in10.0 miWSW (240°)25.3 mph33.4 mphOvercast
2:15 PM30.6 °F15.3 °F53 %29.85 in10.0 miWSW (240°)27.6 mph33.4 mphOvercast
2:35 PM30.7 °F14.7 °F52 %29.85 in10.0 miWSW (240°)24.2 mph32.2 mphOvercast
2:55 PM30.9 °F15.8 °F54 %29.85 in10.0 miWSW (240°)19.6 mph34.5 mphOvercast
3:15 PM30.9 °F15.3 °F52 %29.85 in10.0 miWSW (240°)23.0 mph33.4 mphOvercast
3:35 PM31.8 °F14.5 °F49 %29.85 in10.0 miSW (230°)24.2 mph34.5 mphOvercast
4:15 PM31.5 °F15.6 °F52 %29.86 in10.0 miWSW (240°)23.0 mph31.1 mphOvercast
4:35 PM31.5 °F15.8 °F52 %29.86 in10.0 miWSW (250°)17.3 mph27.6 mphOvercast
4:55 PM31.3 °F15.1 °F51 %29.86 in10.0 miSW (230°)20.7 mph24.2 mphOvercast
5:15 PM31.1 °F15.4 °F52 %29.86 in10.0 miWSW (240°)18.4 mph26.5 mphOvercast
5:35 PM30.7 °F15.3 °F53 %29.86 in10.0 miWSW (250°)20.7 mph27.6 mphOvercast
5:55 PM30.2 °F16.3 °F56 %29.86 in10.0 miWest (260°)15.0 mph21.9 mphOvercast
6:15 PM29.5 °F19.2 °F66 %29.86 in5.0 miWNW (290°)16.1 mph23.0 mphSnowLight Snow
6:35 PM28.0 °F22.3 °F79 %29.88 in1.8 miWest (270°)11.5 mphSnowLight Snow
6:55 PM27.7 °F22.5 °F81 %29.88 in10.0 miWest (270°)11.5 mphSnowLight Snow
7:15 PM28.0 °F22.8 °F81 %29.88 in0.5 miWest (260°)12.7 mph23.0 mphSnowSnow
7:35 PM27.3 °F22.6 °F83 %29.88 in7.0 miWest (260°)9.2 mphSnowLight Snow
7:55 PM27.3 °F22.3 °F81 %29.89 in3.0 miWest (270°)9.2 mphSnowLight Snow
8:15 PM27.0 °F22.5 °F83 %29.89 in7.0 miWest (260°)11.5 mphSnowLight Snow
8:35 PM26.2 °F21.7 °F83 %29.90 in10.0 miWest (280°)8.1 mphOvercast
8:55 PM26.6 °F21.9 °F82 %29.90 in5.0 miWNW (300°)10.4 mphSnowLight Snow
9:15 PM26.4 °F21.2 °F81 %29.90 in3.0 miWNW (300°)10.4 mphSnowLight Snow
9:35 PM25.7 °F20.8 °F82 %29.91 in2.0 miWNW (290°)10.4 mph19.6 mphSnowLight Snow
9:55 PM25.5 °F19.0 °F76 %29.90 in10.0 miWest (280°)10.4 mphOvercast
10:15 PM25.0 °F17.4 °F73 %29.89 in10.0 miWNW (300°)11.5 mph16.1 mphOvercast
10:35 PM24.6 °F17.6 °F75 %29.90 in10.0 miNW (310°)10.4 mphOvercast
10:55 PM24.4 °F17.4 °F75 %29.90 in7.0 miNW (310°)15.0 mph23.0 mphOvercast
11:15 PM23.9 °F16.5 °F73 %29.91 in7.0 miWNW (300°)13.8 mph17.3 mphOvercast
11:35 PM23.4 °F16.5 °F75 %29.92 in3.0 miWNW (290°)20.7 mph24.2 mphSnowLight Snow
11:55 PM22.3 °F12.9 °F67 %29.93 in10.0 miWNW (290°)18.4 mph27.6 mphOvercast
Hourly data recorded from KLCK, located miles away from Circleville, Ohio







STORIES FROM OUR PARTNERS